Terminal Aerodrome Forecast
Issued by NWS Newport/Morehead City, NC

Home | Current Version | Previous Version | Text Only | Print | Product List | Glossary On
Versions: 1 2 3 4 5 6 7 8 9 10 11 12 13 14 15
000
FTUS42 KMHX 031139
TAFEWN
TAF
KEWN 031139Z 0312/0412 22006KT P6SM VCSH OVC020
     FM031600 24005KT P6SM VCTS BKN050CB
     FM040400 22007KT P6SM VCSH SCT010 BKN100=

USA.gov is the U.S. government's official web portal to all federal, state and local government web resources and services.